Homer, AK

3:44 AM AKST on November 21, 2017 (GMT -0900)
Homer

Weather History for PAHO - January, 2014

Change the Weather History Date:

Sunday, January 26, 2014

  Actual Average Record
Temperature  
Mean Temperature 50 °F -  
Max Temperature 53 °F 29 °F 53 °F (2014)
Min Temperature 46 °F 17 °F -16 °F (1947)
Degree Days  
Heating Degree Days 16    
Moisture  
Dew Point 35 °F    
Average Humidity 56    
Maximum Humidity 68    
Minimum Humidity 38    
Precipitation  
Precipitation 0.01 in - - ()
Sea Level Pressure  
Sea Level Pressure 29.82 in    
Wind  
Wind Speed 19 mph (ENE)    
Max Wind Speed 28 mph    
Max Gust Speed 45 mph    
Visibility 10 miles    
Events Rain    
Averages and records for this station are not official NWS values.
T = Trace of Precipitation, MM = Missing Value Source: NWS Daily Summary

Daily Weather History Graph

Daily Weather History Graph

Search for Another Location

Airport or City:

Trip Planner

Search our weather history database for the weather conditions in past years. The results will help you decide how hot, cold, wet, or windy it might be!

Date:

Astronomy

Jan. 26, 2014 Rise Set
Actual Time 9:30 AM AKST 5:07 PM AKST
Civil Twilight 8:42 AM AKST 5:55 PM AKST
Nautical Twilight 7:50 AM AKST 6:47 PM AKST
Astronomical Twilight 7:02 AM AKST 7:35 PM AKST
Moon 5:26 AM AKST (1/26) 12:55 PM AKST (1/26)
Length of Visible Light 9h 13m
Length of Day
7h 37m
Waning Crescent, 22% of the Moon is Illuminated
Jan 26
Waning Crescent
Jan 30
New
Feb 6
First Quarter
Feb 14
Full
Feb 22
Last Quarter

Hourly Weather History & Observations

Time (AKST) Temp. Windchill Dew Point Humidity Pressure Visibility Wind Dir Wind Speed Gust Speed Precip Events Conditions
12:53 AM 53.1 °F - 28.9 °F 40% 29.79 in 10.0 mi East 26.5 mph 33.4 mph N/A   Clear
1:53 AM 53.1 °F - 28.0 °F 38% 29.78 in 10.0 mi East 24.2 mph 34.5 mph N/A   Clear
3:53 AM 50.0 °F - 32.0 °F 50% 29.77 in 10.0 mi East 13.8 mph - N/A   Scattered Clouds
4:53 AM 48.0 °F - 36.0 °F 63% 29.78 in 10.0 mi East 23.0 mph 34.5 mph 0.00 in Rain Light Rain
5:53 AM 46.0 °F 38.0 °F 36.0 °F 68% 29.81 in 10.0 mi East 21.9 mph 29.9 mph 0.01 in Rain Light Rain
6:53 AM 48.9 °F - 34.0 °F 56% 29.79 in 10.0 mi East 27.6 mph 44.9 mph 0.00 in   Scattered Clouds
7:53 AM 48.9 °F - 34.0 °F 56% 29.87 in 10.0 mi East 8.1 mph - N/A   Mostly Cloudy
8:53 AM 46.9 °F - 35.1 °F 63% 29.89 in 10.0 mi East 17.3 mph 24.2 mph N/A   Overcast
9:53 AM 46.0 °F 40.6 °F 35.1 °F 66% 29.89 in 10.0 mi East 11.5 mph - N/A   Mostly Cloudy
10:53 AM 46.9 °F - 35.1 °F 63% 29.90 in 10.0 mi ENE 15.0 mph - N/A   Mostly Cloudy
11:53 AM 48.9 °F - 35.1 °F 59% 29.88 in 10.0 mi ENE 15.0 mph 25.3 mph N/A   Mostly Cloudy
12:53 PM 51.1 °F - 35.1 °F 54% 29.87 in 10.0 mi ENE 17.3 mph - N/A   Mostly Cloudy
1:53 PM 51.1 °F - 35.1 °F 54% 29.84 in 10.0 mi East 12.7 mph - N/A   Clear
2:53 PM 52.0 °F - 36.0 °F 54% 29.84 in 10.0 mi NE 8.1 mph - N/A   Clear
3:53 PM 50.0 °F - 37.0 °F 61% 29.86 in 10.0 mi East 19.6 mph 29.9 mph N/A   Overcast
4:53 PM 52.0 °F - 37.0 °F 57% 29.83 in 10.0 mi NE 12.7 mph - N/A   Overcast
5:53 PM 50.0 °F - 36.0 °F 59% 29.84 in 10.0 mi ENE 11.5 mph - N/A   Mostly Cloudy
6:53 PM 51.1 °F - 37.0 °F 59% 29.82 in 10.0 mi ENE 21.9 mph 28.8 mph N/A   Partly Cloudy
7:53 PM 52.0 °F - 37.0 °F 57% 29.79 in 10.0 mi NE 12.7 mph - N/A   Clear
8:53 PM 52.0 °F - 37.0 °F 57% 29.77 in 10.0 mi NE 13.8 mph 21.9 mph N/A   Partly Cloudy
9:53 PM 53.1 °F - 37.9 °F 57% 29.75 in 10.0 mi NE 12.7 mph - N/A   Clear
10:53 PM 52.0 °F - 36.0 °F 54% 29.73 in 10.0 mi NE 16.1 mph - N/A   Clear
11:53 PM 52.0 °F - 35.1 °F 53% 29.70 in 10.0 mi ENE 13.8 mph - N/A   Clear